Date String (YYYY-MM-DD hh:mm:ss) UTC,Instrument flags,absolute air pressure of the measurement (hPa),sample flow rate (lpm),inlet stack bypass flow (lpm),air temperature of the measurement (°C),ambient temperature measured by the external sensor (°C),aerosol sample conditioner tube jacket temperature (°C),OPC LED temperature (°C),internal box temperature (°C),relative humidity of the measurement (%),span deviation,mass concentration of particles derived from Lorenz-Mie calculation of OPC scattering (μg/m³),mass concentration of particles derived from Lorenz-Mie calculation of OPC scattering (μg/m³),mass concentration of particles derived from Lorenz-Mie calculation of OPC scattering (μg/m³)
DateTimeUTC,F1_M11,P_M11,Q1_M11,Q2_M11,T1_M11,T2_M11,T3_M11,T4_M11,T5_M11,U1_M11,ZSPAN_M11,X0_M11,X2_M11,X1_M11
2024-06-08 04:00:00,SystemResetWarning,0827.8,5.00,000.00,029.2,027.6,000.0,037.7,030.7,020.9,0000.0,0006.99,0002.68,0001.87
2024-06-08 04:01:00,SystemResetWarning,0827.8,5.00,000.00,029.3,027.9,000.0,037.7,030.9,020.8,0000.0,0007.48,0002.73,0001.89
2024-06-08 04:02:00,SystemResetWarning,0827.8,5.00,000.00,029.3,028.2,000.0,037.6,031.0,020.7,0000.0,0007.22,0002.77,0001.92
2024-06-08 04:03:00,SystemResetWarning,0827.8,4.99,000.00,029.4,028.4,000.0,037.6,031.1,020.7,0000.0,0007.43,0002.89,0001.93
2024-06-08 04:04:00,SystemResetWarning,0827.8,5.00,000.00,029.4,028.6,000.0,037.7,031.2,020.7,0000.0,0007.10,0002.91,0001.95
2024-06-08 04:05:00,SystemResetWarning,0827.9,5.00,000.00,029.5,028.7,000.0,037.7,031.3,020.7,0000.0,0006.61,0002.95,0001.97
2024-06-08 04:06:00,SystemResetWarning,0827.9,5.01,000.00,029.6,028.9,000.0,037.7,031.3,020.6,0000.0,0006.73,0003.02,0001.99
2024-06-08 04:07:00,SystemResetWarning,0827.9,4.99,000.00,029.6,029.0,000.0,037.7,031.4,020.6,0000.0,0007.02,0003.04,0002.01
2024-06-08 04:08:00,SystemResetWarning,0828.0,5.00,000.00,029.7,029.1,000.0,037.8,031.5,020.5,0000.0,0007.53,0003.08,0002.02
2024-06-08 04:09:00,SystemResetWarning,0827.9,5.00,000.00,029.7,029.2,000.0,037.8,031.5,020.4,0000.0,0007.74,0003.11,0002.04
2024-06-08 04:10:00,SystemResetWarning,0827.9,5.00,000.00,029.8,029.3,000.0,037.8,031.6,020.4,0000.0,0008.21,0003.15,0002.05
2024-06-08 04:11:00,SystemResetWarning,0827.9,5.01,000.00,029.8,029.4,000.0,037.9,031.6,020.4,0000.0,0008.11,0003.16,0002.06
2024-06-08 04:12:00,SystemResetWarning,0827.9,5.00,000.00,029.9,029.4,000.0,037.9,031.7,020.4,0000.0,0007.47,0003.13,0002.06
2024-06-08 04:13:00,SystemResetWarning,0827.8,4.98,000.00,029.8,028.2,000.0,038.0,031.1,020.5,0000.0,0007.94,0003.14,0002.08
2024-06-08 04:14:00,SystemResetWarning,0827.8,5.00,000.00,029.4,026.5,000.0,038.0,030.3,020.9,0000.0,0007.80,0003.08,0002.09
2024-06-08 04:15:00,SystemResetWarning,0827.8,5.01,000.00,029.3,026.7,000.0,038.0,030.3,021.0,0000.0,0007.88,0003.11,0002.13
2024-06-08 04:16:00,SystemResetWarning,0827.8,5.00,000.00,029.2,027.0,000.0,037.9,030.5,021.2,0000.0,0008.12,0003.12,0002.14
2024-06-08 04:17:00,SystemResetWarning,0827.7,5.00,000.00,029.3,027.4,000.0,037.8,030.7,021.2,0000.0,0008.14,0003.09,0002.14
2024-06-08 04:18:00,SystemResetWarning,0827.8,5.00,000.00,029.3,027.8,000.0,037.8,030.8,021.2,0000.0,0008.06,0003.09,0002.15
2024-06-08 04:19:00,SystemResetWarning,0827.7,5.00,000.00,029.3,028.1,000.0,037.7,031.0,021.1,0000.0,0007.93,0003.11,0002.17
2024-06-08 04:20:00,SystemResetWarning,0827.8,4.99,000.00,029.4,028.3,000.0,037.7,031.0,021.0,0000.0,0008.68,0003.11,0002.18
2024-06-08 04:21:00,SystemResetWarning,0827.7,5.00,000.00,029.4,028.5,000.0,037.7,031.1,021.0,0000.0,0008.28,0003.10,0002.19
2024-06-08 04:22:00,SystemResetWarning,0827.7,5.01,000.00,029.5,028.7,000.0,037.8,031.2,021.0,0000.0,0008.27,0003.11,0002.21
2024-06-08 04:23:00,SystemResetWarning,0827.8,5.00,000.00,029.5,028.8,000.0,037.8,031.3,021.0,0000.0,0008.33,0003.13,0002.21
2024-06-08 04:24:00,SystemResetWarning,0827.7,5.00,000.00,029.6,029.0,000.0,037.8,031.4,020.6,0000.0,0007.72,0003.11,0002.21
2024-06-08 04:25:00,SystemResetWarning,0827.7,4.99,000.00,029.7,029.1,000.0,037.8,031.4,020.5,0000.0,0007.74,0003.11,0002.21
2024-06-08 04:26:00,SystemResetWarning,0827.7,4.99,000.00,029.7,029.2,000.0,037.8,031.5,020.2,0000.0,0007.58,0003.05,0002.19
2024-06-08 04:27:00,SystemResetWarning,0827.7,5.01,000.00,029.8,029.2,000.0,037.9,031.6,020.2,0000.0,0007.36,0003.04,0002.18
2024-06-08 04:28:00,SystemResetWarning,0827.7,5.01,000.00,029.8,029.3,000.0,037.9,031.6,020.1,0000.0,0007.40,0003.08,0002.17
2024-06-08 04:29:00,SystemResetWarning,0827.7,4.99,000.00,029.9,029.4,000.0,037.9,031.7,020.1,0000.0,0007.39,0003.10,0002.15
2024-06-08 04:30:00,SystemResetWarning,0827.7,4.99,000.00,029.9,029.5,000.0,038.0,031.7,019.9,0000.0,0007.13,0003.09,0002.14
2024-06-08 04:31:00,SystemResetWarning,0827.7,4.99,000.00,029.9,028.5,000.0,038.0,031.2,019.9,0000.0,0005.48,0003.07,0002.13
2024-06-08 04:32:00,SystemResetWarning,0827.6,5.00,000.00,029.5,026.5,000.0,038.1,030.3,020.3,0000.0,0005.09,0003.04,0002.10
2024-06-08 04:33:00,SystemResetWarning,0827.5,5.01,000.00,029.3,026.5,000.0,038.1,030.2,020.6,0000.0,0004.93,0003.00,0002.08
2024-06-08 04:34:00,SystemResetWarning,0827.5,4.99,000.00,029.2,026.9,000.0,037.9,030.4,020.6,0000.0,0004.93,0002.97,0002.09
2024-06-08 04:35:00,SystemResetWarning,0827.5,5.00,000.00,029.2,027.3,000.0,037.8,030.6,020.5,0000.0,0004.90,0002.94,0002.08
2024-06-08 04:36:00,SystemResetWarning,0827.7,5.00,000.00,029.3,027.7,000.0,037.8,030.8,020.4,0000.0,0005.17,0002.93,0002.07
2024-06-08 04:37:00,SystemResetWarning,0827.7,5.00,000.00,029.3,028.0,000.0,037.8,030.9,020.5,0000.0,0006.00,0002.93,0002.08
2024-06-08 04:38:00,SystemResetWarning,0827.7,4.99,000.00,029.4,028.2,000.0,037.7,031.0,020.5,0000.0,0005.90,0002.90,0002.09
2024-06-08 04:39:00,SystemResetWarning,0827.7,5.00,000.00,029.4,028.4,000.0,037.7,031.1,020.3,0000.0,0005.82,0002.89,0002.09
2024-06-08 04:40:00,SystemResetWarning,0827.7,5.00,000.00,029.5,028.6,000.0,037.7,031.2,020.0,0000.0,0005.87,0002.90,0002.10
2024-06-08 04:41:00,SystemResetWarning,0827.7,5.00,000.00,029.5,028.8,000.0,037.7,031.3,020.1,0000.0,0006.47,0002.87,0002.11
2024-06-08 04:42:00,SystemResetWarning,0827.7,5.00,000.00,029.6,028.9,000.0,037.8,031.3,020.2,0000.0,0006.58,0002.88,0002.11
2024-06-08 04:43:00,SystemResetWarning,0827.8,5.00,000.00,029.6,029.0,000.0,037.8,031.4,020.1,0000.0,0006.72,0002.92,0002.13
2024-06-08 04:44:00,SystemResetWarning,0827.8,5.01,000.00,029.7,029.1,000.0,037.8,031.5,020.0,0000.0,0006.77,0002.97,0002.15
2024-06-08 04:45:00,SystemResetWarning,0827.8,5.00,000.00,029.8,029.2,000.0,037.8,031.5,019.9,0000.0,0006.70,0002.99,0002.16
2024-06-08 04:46:00,SystemResetWarning,0827.8,5.01,000.00,029.8,029.3,000.0,037.9,031.6,019.9,0000.0,0006.72,0003.01,0002.17
2024-06-08 04:47:00,SystemResetWarning,0827.8,5.00,000.00,029.9,029.4,000.0,037.9,031.6,020.1,0000.0,0006.44,0003.03,0002.17
2024-06-08 04:48:00,SystemResetWarning,0827.8,5.00,000.00,029.9,029.4,000.0,037.9,031.7,020.1,0000.0,0005.73,0003.07,0002.17
2024-06-08 04:49:00,SystemResetWarning,0827.8,4.99,000.00,030.0,029.5,000.0,038.0,031.7,020.0,0000.0,0005.92,0003.12,0002.17
2024-06-08 04:50:00,SystemResetWarning,0827.8,4.99,000.00,029.9,028.9,000.0,038.0,031.4,020.1,0000.0,0006.19,0003.14,0002.17
2024-06-08 04:51:00,SystemResetWarning,0827.7,5.00,000.00,029.6,026.6,000.0,038.1,030.4,020.4,0000.0,0006.57,0003.11,0002.16
2024-06-08 04:52:00,SystemResetWarning,0827.8,5.02,000.00,029.3,026.4,000.0,038.1,030.2,020.5,0000.0,0007.07,0003.13,0002.18
2024-06-08 04:53:00,SystemResetWarning,0827.8,5.00,000.00,029.2,026.8,000.0,038.0,030.3,020.7,0000.0,0007.40,0003.14,0002.17
2024-06-08 04:54:00,SystemResetWarning,0827.7,5.00,000.00,029.3,027.2,000.0,037.9,030.6,020.9,0000.0,0007.39,0003.11,0002.17
2024-06-08 04:55:00,SystemResetWarning,0827.8,4.99,000.00,029.3,027.6,000.0,037.8,030.8,020.7,0000.0,0007.47,0003.13,0002.17
2024-06-08 04:56:00,SystemResetWarning,0827.8,5.00,000.00,029.3,027.9,000.0,037.8,030.9,020.6,0000.0,0007.40,0003.10,0002.17
2024-06-08 04:57:00,SystemResetWarning,0827.8,5.00,000.00,029.4,028.1,000.0,037.8,031.0,020.5,0000.0,0007.45,0003.10,0002.17
2024-06-08 04:58:00,SystemResetWarning,0827.8,5.00,000.00,029.4,028.4,000.0,037.8,031.1,020.5,0000.0,0007.49,0003.12,0002.18
2024-06-08 04:59:00,SystemResetWarning,0827.8,5.01,000.00,029.5,028.6,000.0,037.7,031.2,020.4,0000.0,0007.39,0003.09,0002.18
